Weather History for Danbury, CT

Change the Weather History Date:

Thursday, February 28, 2013

  Actual Average Record
Temperature  
Mean Temperature 38 °F -  
Max Temperature 46 °F 43 °F 64 °F (1976)
Min Temperature 30 °F 23 °F 1 °F (2014)
Degree Days  
Heating Degree Days 27    
Moisture  
Dew Point 33 °F    
Average Humidity 85    
Maximum Humidity 100    
Minimum Humidity 56    
Precipitation  
Precipitation 0.00 in - - ()
Sea Level Pressure  
Sea Level Pressure 29.59 in    
Wind  
Wind Speed 2 mph (WNW)    
Max Wind Speed 7 mph    
Max Gust Speed -    
Visibility 7 miles    
Events Rain    
Averages and records for this station are not official NWS values.
T = Trace of Precipitation, MM = Missing Value Source: NWS Daily Summary

Daily Weather History Graph

Daily Weather History Graph

Search for Another Location

Airport:

Trip Planner

Search our weather history database for the weather conditions in past years. The results will help you decide how hot, cold, wet, or windy it might be!

Date:

Astronomy

Feb. 28, 2013 Rise Set
Actual Time 6:29 AM EST 5:43 PM EST
Civil Twilight 6:01 AM EST 6:11 PM EST
Nautical Twilight 5:29 AM EST 6:43 PM EST
Astronomical Twilight 4:57 AM EST 7:15 PM EST
Moon 9:10 PM EST (2/28) 7:35 AM EST (2/28)
Length of Visible Light 12h 09m
Length of Day
11h 14m
Waning Gibbous, 91% of the Moon is Illuminated
Feb 28
Waning Gibbous
Mar 4
Last Quarter
Mar 11
New
Mar 19
First Quarter
Mar 27
Full

Hourly Weather History & Observations

Time (EST) Temp. Windchill Dew Point Humidity Pressure Visibility Wind Dir Wind Speed Gust Speed Precip Events Conditions
12:51 AM 30.2 °F - 30.2 °F 100% 29.59 in 1.8 mi Calm Calm - N/A   Mostly Cloudy
12:53 AM 30.9 °F - 30.9 °F 100% 29.60 in 1.8 mi Calm Calm - N/A   Mostly Cloudy
1:00 AM 30.2 °F 26.7 °F 30.2 °F 100% 29.59 in 1.5 mi SSW 3.5 mph - N/A   Mostly Cloudy
1:12 AM 30.2 °F 26.7 °F 30.2 °F 100% 29.59 in 3.0 mi SW 3.5 mph - N/A   Scattered Clouds
1:53 AM 30.9 °F - 30.9 °F 100% 29.61 in 7.0 mi Calm Calm - N/A   Overcast
2:28 AM 30.2 °F - 30.2 °F 100% 29.60 in 4.0 mi Calm Calm - N/A   Mostly Cloudy
2:53 AM 30.9 °F - 30.9 °F 100% 29.61 in 3.0 mi Calm Calm - N/A   Overcast
3:53 AM 32.0 °F - 32.0 °F 100% 29.61 in 5.0 mi Calm Calm - N/A   Overcast
4:53 AM 32.0 °F - 32.0 °F 100% 29.62 in 6.0 mi Calm Calm - N/A   Overcast
5:53 AM 32.0 °F - 32.0 °F 100% 29.61 in 4.0 mi Calm Calm - N/A   Overcast
6:15 AM 32.0 °F - 30.2 °F 93% 29.60 in 2.5 mi Calm Calm - N/A   Overcast
6:24 AM 32.0 °F - 30.2 °F 93% 29.60 in 5.0 mi Calm Calm - N/A   Overcast
7:53 AM 33.1 °F - 32.0 °F 96% 29.62 in 3.0 mi Calm Calm - N/A   Scattered Clouds
9:53 AM 37.9 °F - 36.0 °F 93% 29.62 in 5.0 mi Calm Calm - 0.00 in   Overcast
10:00 AM 37.4 °F - 35.6 °F 93% 29.61 in 5.0 mi Calm Calm - N/A   Overcast
10:08 AM 37.4 °F - 35.6 °F 93% 29.61 in 5.0 mi Calm Calm - N/A   Overcast
10:41 AM 42.8 °F 39.3 °F 37.4 °F 81% 29.60 in 9.0 mi Variable 5.8 mph - N/A   Overcast
10:53 AM 42.1 °F 39.2 °F 36.0 °F 79% 29.60 in 10.0 mi WSW 4.6 mph - N/A   Overcast
11:53 AM 44.1 °F 41.5 °F 37.0 °F 76% 29.58 in 10.0 mi SSW 4.6 mph - N/A   Mostly Cloudy
12:12 PM 46.4 °F 43.5 °F 35.6 °F 66% 29.56 in 10.0 mi North 5.8 mph - N/A   Mostly Cloudy
12:53 PM 45.0 °F 43.5 °F 34.0 °F 65% 29.55 in 10.0 mi WSW 3.5 mph - N/A   Mostly Cloudy
1:53 PM 46.0 °F 43.9 °F 35.1 °F 66% 29.55 in 10.0 mi West 4.6 mph - N/A   Overcast
2:53 PM 46.0 °F 44.8 °F 30.9 °F 56% 29.54 in 10.0 mi NW 3.5 mph - N/A   Overcast
3:53 PM 45.0 °F 43.5 °F 30.0 °F 56% 29.54 in 10.0 mi NW 3.5 mph - N/A   Overcast
4:53 PM 44.1 °F 40.8 °F 33.1 °F 65% 29.55 in 10.0 mi NNW 5.8 mph - 0.00 in   Overcast
5:53 PM 43.0 °F 39.5 °F 30.9 °F 62% 29.56 in 10.0 mi NW 5.8 mph - N/A   Overcast
6:53 PM 41.0 °F - 33.1 °F 73% 29.57 in 10.0 mi Calm Calm - N/A   Overcast
7:53 PM 41.0 °F - 33.1 °F 73% 29.58 in 10.0 mi Calm Calm - N/A   Overcast
8:53 PM 39.9 °F 36.7 °F 34.0 °F 79% 29.59 in 10.0 mi WNW 4.6 mph - N/A   Overcast
9:53 PM 39.0 °F 34.8 °F 35.1 °F 86% 29.59 in 10.0 mi WNW 5.8 mph - N/A   Overcast
10:43 PM 37.4 °F 33.8 °F 33.8 °F 87% 29.58 in 10.0 mi WNW 4.6 mph - 0.00 in Rain Light Rain
10:53 PM 37.9 °F 34.4 °F 34.0 °F 86% 29.59 in 10.0 mi NW 4.6 mph - 0.00 in Rain Light Rain
11:20 PM 37.4 °F 32.8 °F 33.8 °F 87% 29.59 in 10.0 mi West 5.8 mph - 0.00 in Rain Light Rain
11:53 PM 37.0 °F 31.6 °F 34.0 °F 89% 29.60 in 10.0 mi WNW 6.9 mph - 0.00 in Rain Light Rain